Weather History for Myrtle Beach, SC

Change the Weather History Date:

Tuesday, November 27, 2012

  Actual Average Record
Temperature  
Mean Temperature 48 °F -  
Max Temperature 60 °F 61 °F 79 °F (2001)
Min Temperature 35 °F 40 °F 23 °F (1954)
Degree Days  
Heating Degree Days 18    
Moisture  
Dew Point 41 °F    
Average Humidity 83    
Maximum Humidity 100    
Minimum Humidity 45    
Precipitation  
Precipitation 0.07 in - - ()
Sea Level Pressure  
Sea Level Pressure 30.18 in    
Wind  
Wind Speed 2 mph (WSW)    
Max Wind Speed 12 mph    
Max Gust Speed 17 mph    
Visibility 9 miles    
Events Rain    
Averages and records for this station are not official NWS values.
T = Trace of Precipitation, MM = Missing Value Source: NWS Daily Summary

Daily Weather History Graph

Daily Weather History Graph

Search for Another Location

Airport:

Trip Planner

Search our weather history database for the weather conditions in past years. The results will help you decide how hot, cold, wet, or windy it might be!

Date:

Astronomy

Nov. 27, 2012 Rise Set
Actual Time 6:59 AM EST 5:07 PM EST
Civil Twilight 6:32 AM EST 5:34 PM EST
Nautical Twilight 6:01 AM EST 6:05 PM EST
Astronomical Twilight 5:31 AM EST 6:35 PM EST
Moon 4:37 PM EST (11/27) 6:03 AM EST (11/27)
Length of Visible Light 11h 02m
Length of Day
10h 08m
Waxing Gibbous, 99% of the Moon is Illuminated
Nov 27
Waxing Gibbous
Nov 28
Full
Dec 6
Last Quarter
Dec 13
New
Dec 20
First Quarter

Hourly Weather History & Observations

Time (EST) Temp. Dew Point Humidity Pressure Visibility Wind Dir Wind Speed Gust Speed Precip Events Conditions
12:15 AM 39.2 °F 33.8 °F 81% 30.19 in 10.0 mi Calm Calm - N/A   Clear
12:35 AM 39.2 °F 33.8 °F 81% 30.19 in 10.0 mi Calm Calm - N/A   Clear
12:55 AM 39.2 °F 33.8 °F 81% 30.20 in 10.0 mi Calm Calm - N/A   Clear
1:15 AM 37.4 °F 33.8 °F 87% 30.19 in 10.0 mi Calm Calm - N/A   Clear
1:35 AM 37.4 °F 30.2 °F 75% 30.20 in 10.0 mi Calm Calm - N/A   Clear
1:55 AM 37.4 °F 32.0 °F 81% 30.19 in 10.0 mi Calm Calm - N/A   Clear
2:15 AM 35.6 °F 32.0 °F 87% 30.19 in 10.0 mi Calm Calm - N/A   Clear
2:35 AM 37.4 °F 33.8 °F 87% 30.19 in 10.0 mi Calm Calm - N/A   Clear
2:55 AM 37.4 °F 33.8 °F 87% 30.19 in 10.0 mi Calm Calm - N/A   Clear
3:15 AM 37.4 °F 33.8 °F 87% 30.19 in 10.0 mi Calm Calm - N/A   Clear
3:35 AM 37.4 °F 33.8 °F 87% 30.19 in 10.0 mi Calm Calm - N/A   Clear
3:55 AM 39.2 °F 33.8 °F 81% 30.18 in 10.0 mi Calm Calm - N/A   Clear
4:15 AM 39.2 °F 35.6 °F 87% 30.18 in 10.0 mi Calm Calm - N/A   Clear
4:35 AM 37.4 °F 35.6 °F 93% 30.18 in 10.0 mi Calm Calm - N/A   Clear
4:55 AM 39.2 °F 37.4 °F 93% 30.18 in 10.0 mi Calm Calm - N/A   Clear
5:15 AM 42.8 °F 37.4 °F 81% 30.18 in 10.0 mi Calm Calm - N/A   Clear
5:35 AM 42.8 °F 37.4 °F 81% 30.18 in 10.0 mi Calm Calm - N/A   Clear
5:50 AM 46.4 °F 39.2 °F 76% 30.19 in 10.0 mi Calm Calm - N/A   Clear
6:45 AM 46.4 °F 39.2 °F 76% 30.19 in 10.0 mi Calm Calm - N/A   Clear
7:45 AM 48.2 °F 42.8 °F 82% 30.20 in 10.0 mi Calm Calm - N/A   Mostly Cloudy
8:50 AM 51.8 °F 42.8 °F 71% 30.20 in 10.0 mi West 4.6 mph - N/A   Clear
9:45 AM 57.2 °F 39.2 °F 51% 30.21 in 10.0 mi West 6.9 mph - N/A   Clear
10:50 AM 60.8 °F 39.2 °F 45% 30.17 in 10.0 mi Variable 5.8 mph - N/A   Clear
12:45 PM 60.8 °F 46.4 °F 59% 30.16 in 10.0 mi South 9.2 mph - N/A   Overcast
1:50 PM 59.0 °F 48.2 °F 67% 30.14 in 10.0 mi SE 6.9 mph - N/A   Overcast
2:45 PM 55.4 °F 50.0 °F 82% 30.15 in 4.0 mi SSW 11.5 mph - N/A Rain Light Rain
3:45 PM 53.6 °F 51.8 °F 94% 30.11 in 10.0 mi SSE 5.8 mph - N/A   Scattered Clouds
4:50 PM 53.6 °F 50.0 °F 88% 30.09 in 7.0 mi North 8.1 mph - N/A   Overcast
5:30 PM 53.6 °F 51.8 °F 94% 30.14 in 5.0 mi South 11.5 mph 17.3 mph N/A Rain Light Rain
7:45 PM 51.8 °F 50.0 °F 94% 30.16 in 8.0 mi South 8.1 mph - N/A Rain Light Rain
9:50 PM 50.0 °F 48.2 °F 94% 30.17 in 7.0 mi WNW 5.8 mph - N/A   Mostly Cloudy
10:50 PM 50.0 °F 50.0 °F 100% - - North - - N/A   Mostly Cloudy
10:55 PM 50.0 °F 48.2 °F 94% 30.16 in 3.0 mi NNW 4.6 mph - N/A   Mostly Cloudy
11:15 PM 50.0 °F 48.2 °F 94% 30.17 in 4.0 mi Calm Calm - N/A   Mostly Cloudy
11:35 PM 50.0 °F 48.2 °F 94% 30.17 in 2.5 mi NNW 3.5 mph - N/A   Partly Cloudy
11:55 PM 50.0 °F 48.2 °F 94% 30.17 in 5.0 mi NNW 4.6 mph - N/A   Mostly Cloudy